Find Starlink 3595

NORAD ID: 51894 Int'l Des: 2022-022 Owner: SPXS Country: US Constellation: starlink operational
LEOCIRCULAR

現在のビュー

3D地球を読み込み中...

About Starlink 3595

Starlink 3595 (NORAD 51894) is a starlink constellation satellite (v1.5) launched Mar 3, 2022 by SPXS of US. It operates in LEO, CIRCULAR orbit with a mass of 297.00 kg.

Starlink 3595について

説明を読み込み中...

次回通過

Passes for default location (London). Set your location on the main map for personalized predictions.

高度履歴

Loading altitude history...

軌道要素

1 51894U 22022AU 26195.18513677 .00000193 00000-0 16863-4 0 9997
2 51894 53.1618 147.4240 0001176 96.1374 263.9763 15.34385244242452
Epoch: Jul 14, 2026 • Age: 7 hours

現在のステータス

高度 482.0 km
遠地点 / 近地点 N/A
速度 7.62 km/s
衛星直下点 -53.00°S, 46.05°W
打ち上げ日 Mar 3, 2022
運用期間 4.3 years
タイプ internet

技術仕様

分類 Payload
質量 297.00 kg
乾燥質量 275.00 kg
総質量 297.00 kg
長さ 0.20 m
直径 2.80 m
スパン 9.00 m
形状 Box + pan
製造者 SPXS
バスタイプ Starlink
フェーズステータス In Orbit
所有者/国 SPXS/US

Most Searched